Year,Month,Day,Hour,Minute,Value (Times are PST for temperature in C)
2008,12,20,00,00,-12.20
2008,12,20,00,01,-12.20
2008,12,20,00,02,-12.30
2008,12,20,00,03,-12.30
2008,12,20,00,04,-12.30
2008,12,20,00,05,-12.30
2008,12,20,00,06,-12.30
2008,12,20,00,07,-12.30
2008,12,20,00,08,-12.40
2008,12,20,00,09,-12.40
2008,12,20,00,10,-12.50
2008,12,20,00,11,-12.50
2008,12,20,00,12,-12.50
2008,12,20,00,13,-12.50
2008,12,20,00,14,-12.50
2008,12,20,00,15,-12.50
2008,12,20,00,16,-12.50
2008,12,20,00,17,-12.50
2008,12,20,00,18,-12.40
2008,12,20,00,19,-12.40
2008,12,20,00,20,-12.40
2008,12,20,00,21,-12.40
2008,12,20,00,22,-12.40
2008,12,20,00,23,-12.40
2008,12,20,00,24,-12.40
2008,12,20,00,25,-12.40
2008,12,20,00,26,-12.40
2008,12,20,00,27,-12.40
2008,12,20,00,28,-12.40
2008,12,20,00,29,-12.50
2008,12,20,00,30,-12.40
2008,12,20,00,31,-12.40
2008,12,20,00,32,-12.40
2008,12,20,00,33,-12.30
2008,12,20,00,34,-12.30
2008,12,20,00,35,-12.20
2008,12,20,00,36,-12.20
2008,12,20,00,37,-12.10
2008,12,20,00,38,-12.00
2008,12,20,00,39,-12.00
2008,12,20,00,40,-11.90
2008,12,20,00,41,-11.80
2008,12,20,00,42,-11.70
2008,12,20,00,43,-11.50
2008,12,20,00,44,-11.30
2008,12,20,00,45,-11.10
2008,12,20,00,46,-10.90
2008,12,20,00,47,-10.80
2008,12,20,00,48,-10.90
2008,12,20,00,49,-10.90
2008,12,20,00,50,-10.90
2008,12,20,00,51,-11.00
2008,12,20,00,52,-11.10
2008,12,20,00,53,-11.10
2008,12,20,00,54,-11.10
2008,12,20,00,55,-10.90
2008,12,20,00,56,-10.80
2008,12,20,00,57,-10.90
2008,12,20,00,58,-10.90
2008,12,20,00,59,-11.00
2008,12,20,01,00,-11.00
2008,12,20,01,01,-11.10
2008,12,20,01,02,-11.10
2008,12,20,01,03,-11.20
2008,12,20,01,04,-11.20
2008,12,20,01,05,-11.30
2008,12,20,01,06,-11.30
2008,12,20,01,07,-11.40
2008,12,20,01,08,-11.40
2008,12,20,01,09,-11.40
2008,12,20,01,10,-11.40
2008,12,20,01,11,-11.40
2008,12,20,01,12,-11.50
2008,12,20,01,13,-11.50
2008,12,20,01,14,-11.60
2008,12,20,01,15,-11.70
2008,12,20,01,16,-11.70
2008,12,20,01,17,-11.70
2008,12,20,01,18,-11.80
2008,12,20,01,19,-11.80
2008,12,20,01,20,-11.80
2008,12,20,01,21,-11.90
2008,12,20,01,22,-11.90
2008,12,20,01,23,-11.90
2008,12,20,01,24,-11.90
2008,12,20,01,25,-11.90
2008,12,20,01,26,-11.90
2008,12,20,01,27,-11.90
2008,12,20,01,28,-11.90
2008,12,20,01,29,-11.80
2008,12,20,01,30,-11.80
2008,12,20,01,31,-11.80
2008,12,20,01,32,-11.80
2008,12,20,01,33,-11.80
2008,12,20,01,34,-11.80
2008,12,20,01,35,-11.90
2008,12,20,01,36,-11.90
2008,12,20,01,37,-11.90
2008,12,20,01,38,-11.90
2008,12,20,01,39,-11.90
2008,12,20,01,40,-11.90
2008,12,20,01,41,-11.90
2008,12,20,01,42,-12.00
2008,12,20,01,43,-12.00
2008,12,20,01,44,-12.00
2008,12,20,01,45,-12.00
2008,12,20,01,46,-12.10
2008,12,20,01,47,-12.10
2008,12,20,01,48,-12.20
2008,12,20,01,49,-12.20
2008,12,20,01,50,-12.20
2008,12,20,01,51,-12.30
2008,12,20,01,52,-12.30
2008,12,20,01,53,-12.30
2008,12,20,01,54,-12.40
2008,12,20,01,55,-12.40
2008,12,20,01,56,-12.40
2008,12,20,01,57,-12.50
2008,12,20,01,58,-12.50
2008,12,20,01,59,-12.50
2008,12,20,02,00,-12.50
2008,12,20,02,01,-12.50
2008,12,20,02,02,-12.50
2008,12,20,02,03,-12.30
2008,12,20,02,04,-12.10
2008,12,20,02,05,-11.90
2008,12,20,02,06,-11.80
2008,12,20,02,07,-11.60
2008,12,20,02,08,-11.40
2008,12,20,02,09,-11.30
2008,12,20,02,10,-11.20
2008,12,20,02,11,-11.20
2008,12,20,02,12,-11.20
2008,12,20,02,13,-11.20
2008,12,20,02,14,-11.30
2008,12,20,02,15,-11.30
2008,12,20,02,16,-11.40
2008,12,20,02,17,-11.40
2008,12,20,02,18,-11.40
2008,12,20,02,19,-11.50
2008,12,20,02,20,-11.50
2008,12,20,02,21,-11.50
2008,12,20,02,22,-11.40
2008,12,20,02,23,-11.30
2008,12,20,02,24,-11.30
2008,12,20,02,25,-11.20
2008,12,20,02,26,-11.20
2008,12,20,02,27,-11.30
2008,12,20,02,28,-11.30
2008,12,20,02,29,-11.40
2008,12,20,02,30,-11.40
2008,12,20,02,31,-11.50
2008,12,20,02,32,-11.50
2008,12,20,02,33,-11.50
2008,12,20,02,34,-11.40
2008,12,20,02,35,-11.40
2008,12,20,02,36,-11.30
2008,12,20,02,37,-11.30
2008,12,20,02,38,-11.30
2008,12,20,02,39,-11.30
2008,12,20,02,40,-11.30
2008,12,20,02,41,-11.30
2008,12,20,02,42,-11.40
2008,12,20,02,43,-11.50
2008,12,20,02,44,-11.50
2008,12,20,02,45,-11.60
2008,12,20,02,46,-11.60
2008,12,20,02,47,-11.60
2008,12,20,02,48,-11.70
2008,12,20,02,49,-11.70
2008,12,20,02,50,-11.70
2008,12,20,02,51,-11.70
2008,12,20,02,52,-11.70
2008,12,20,02,53,-11.70
2008,12,20,02,54,-11.70
2008,12,20,02,55,-11.80
2008,12,20,02,56,-11.80
2008,12,20,02,57,-11.80
2008,12,20,02,58,-11.90
2008,12,20,02,59,-11.90
2008,12,20,03,00,-11.90
2008,12,20,03,01,-12.00
2008,12,20,03,02,-11.90
2008,12,20,03,03,-11.90
2008,12,20,03,04,-11.90
2008,12,20,03,05,-11.80
2008,12,20,03,06,-11.80
2008,12,20,03,07,-11.80
2008,12,20,03,08,-11.70
2008,12,20,03,09,-11.60
2008,12,20,03,10,-11.60
2008,12,20,03,11,-11.50
2008,12,20,03,12,-11.50
2008,12,20,03,13,-11.40
2008,12,20,03,14,-11.30
2008,12,20,03,15,-11.20
2008,12,20,03,16,-11.20
2008,12,20,03,17,-11.20
2008,12,20,03,18,-11.10
2008,12,20,03,19,-11.10
2008,12,20,03,20,-11.00
2008,12,20,03,21,-10.90
2008,12,20,03,22,-10.90
2008,12,20,03,23,-10.90
2008,12,20,03,24,-10.90
2008,12,20,03,25,-10.90
2008,12,20,03,26,-10.90
2008,12,20,03,27,-10.90
2008,12,20,03,28,-11.00
2008,12,20,03,29,-11.00
2008,12,20,03,30,-11.10
2008,12,20,03,31,-11.10
2008,12,20,03,32,-11.10
2008,12,20,03,33,-11.00
2008,12,20,03,34,-10.90
2008,12,20,03,35,-10.90
2008,12,20,03,36,-10.90
2008,12,20,03,37,-10.80
2008,12,20,03,38,-10.80
2008,12,20,03,39,-10.80
2008,12,20,03,40,-10.80
2008,12,20,03,41,-10.80
2008,12,20,03,42,-10.80
2008,12,20,03,43,-10.80
2008,12,20,03,44,-10.80
2008,12,20,03,45,-10.70
2008,12,20,03,46,-10.70
2008,12,20,03,47,-10.70
2008,12,20,03,48,-10.60
2008,12,20,03,49,-10.60
2008,12,20,03,50,-10.60
2008,12,20,03,51,-10.60
2008,12,20,03,52,-10.60
2008,12,20,03,53,-10.60
2008,12,20,03,54,-10.60
2008,12,20,03,55,-10.60
2008,12,20,03,56,-10.60
2008,12,20,03,57,-10.70
2008,12,20,03,58,-10.70
2008,12,20,03,59,-10.70
2008,12,20,04,00,-10.70
2008,12,20,04,01,-10.80
2008,12,20,04,02,-10.80
2008,12,20,04,03,-10.90
2008,12,20,04,04,-10.90
2008,12,20,04,05,-11.00
2008,12,20,04,06,-11.00
2008,12,20,04,07,-10.90
2008,12,20,04,08,-10.90
2008,12,20,04,09,-10.80
2008,12,20,04,10,-10.70
2008,12,20,04,11,-10.60
2008,12,20,04,12,-10.50
2008,12,20,04,13,-10.40
2008,12,20,04,14,-10.30
2008,12,20,04,15,-10.20
2008,12,20,04,16,-10.20
2008,12,20,04,17,-10.10
2008,12,20,04,18,-10.00
2008,12,20,04,19,-9.90
2008,12,20,04,20,-9.90
2008,12,20,04,21,-9.80
2008,12,20,04,22,-9.80
2008,12,20,04,23,-9.80
2008,12,20,04,24,-9.80
2008,12,20,04,25,-9.70
2008,12,20,04,26,-9.70
2008,12,20,04,27,-9.70
2008,12,20,04,28,-9.80
2008,12,20,04,29,-9.80
2008,12,20,04,30,-9.80
2008,12,20,04,31,-9.80
2008,12,20,04,32,-9.80
2008,12,20,04,33,-9.80
2008,12,20,04,34,-9.80
2008,12,20,04,35,-9.80
2008,12,20,04,36,-9.80
2008,12,20,04,37,-9.90
2008,12,20,04,38,-9.90
2008,12,20,04,39,-9.90
2008,12,20,04,40,-10.00
2008,12,20,04,41,-10.00
2008,12,20,04,42,-10.10
2008,12,20,04,43,-10.10
2008,12,20,04,44,-10.10
2008,12,20,04,45,-10.00
2008,12,20,04,46,-9.90
2008,12,20,04,47,-9.90
2008,12,20,04,48,-9.80
2008,12,20,04,49,-9.80
2008,12,20,04,50,-9.80
2008,12,20,04,51,-9.80
2008,12,20,04,52,-9.80
2008,12,20,04,53,-9.80
2008,12,20,04,54,-9.70
2008,12,20,04,55,-9.70
2008,12,20,04,56,-9.60
2008,12,20,04,57,-9.60
2008,12,20,04,58,-9.60
2008,12,20,04,59,-9.60
2008,12,20,05,00,-9.60
2008,12,20,05,01,-9.60
2008,12,20,05,02,-9.60
2008,12,20,05,03,-9.60
2008,12,20,05,04,-9.60
2008,12,20,05,05,-9.50
2008,12,20,05,06,-9.50
2008,12,20,05,07,-9.50
2008,12,20,05,08,-9.60
2008,12,20,05,09,-9.60
2008,12,20,05,10,-9.60
2008,12,20,05,11,-9.60
2008,12,20,05,12,-9.60
2008,12,20,05,13,-9.60
2008,12,20,05,14,-9.50
2008,12,20,05,15,-9.50
2008,12,20,05,16,-9.50
2008,12,20,05,17,-9.50
2008,12,20,05,18,-9.50
2008,12,20,05,19,-9.50
2008,12,20,05,20,-9.50
2008,12,20,05,21,-9.60
2008,12,20,05,22,-9.70
2008,12,20,05,23,-9.80
2008,12,20,05,24,-9.80
2008,12,20,05,25,-9.80
2008,12,20,05,26,-9.70
2008,12,20,05,27,-9.70
2008,12,20,05,28,-9.70
2008,12,20,05,29,-9.60
2008,12,20,05,30,-9.60
2008,12,20,05,31,-9.60
2008,12,20,05,32,-9.60
2008,12,20,05,33,-9.60
2008,12,20,05,34,-9.60
2008,12,20,05,35,-9.60
2008,12,20,05,36,-9.60
2008,12,20,05,37,-9.60
2008,12,20,05,38,-9.70
2008,12,20,05,39,-9.70
2008,12,20,05,40,-9.70
2008,12,20,05,41,-9.70
2008,12,20,05,42,-9.70
2008,12,20,05,43,-9.70
2008,12,20,05,44,-9.70
2008,12,20,05,45,-9.60
2008,12,20,05,46,-9.60
2008,12,20,05,47,-9.70
2008,12,20,05,48,-9.70
2008,12,20,05,49,-9.70
2008,12,20,05,50,-9.70
2008,12,20,05,51,-9.70
2008,12,20,05,52,-9.80
2008,12,20,05,53,-9.80
2008,12,20,05,54,-9.80
2008,12,20,05,55,-9.80
2008,12,20,05,56,-9.80
2008,12,20,05,57,-9.80
2008,12,20,05,58,-9.80
2008,12,20,05,59,-9.80
2008,12,20,06,00,-9.80
2008,12,20,06,01,-9.80
2008,12,20,06,02,-9.70
2008,12,20,06,03,-9.70
2008,12,20,06,04,-9.70
2008,12,20,06,05,-9.70
2008,12,20,06,06,-9.70
2008,12,20,06,07,-9.70
2008,12,20,06,08,-9.70
2008,12,20,06,09,-9.70
2008,12,20,06,10,-9.70
2008,12,20,06,11,-9.70
2008,12,20,06,12,-9.70
2008,12,20,06,13,-9.70
2008,12,20,06,14,-9.70
2008,12,20,06,15,-9.70
2008,12,20,06,16,-9.70
2008,12,20,06,17,-9.70
2008,12,20,06,18,-9.70
2008,12,20,06,19,-9.70
2008,12,20,06,20,-9.60
2008,12,20,06,21,-9.60
2008,12,20,06,22,-9.60
2008,12,20,06,23,-9.60
2008,12,20,06,24,-9.60
2008,12,20,06,25,-9.60
2008,12,20,06,26,-9.60
2008,12,20,06,27,-9.60
2008,12,20,06,28,-9.60
2008,12,20,06,29,-9.60
2008,12,20,06,30,-9.50
2008,12,20,06,31,-9.50
2008,12,20,06,32,-9.60
2008,12,20,06,33,-9.60
2008,12,20,06,34,-9.60
2008,12,20,06,35,-9.60
2008,12,20,06,36,-9.60
2008,12,20,06,37,-9.60
2008,12,20,06,38,-9.60
2008,12,20,06,39,-9.60
2008,12,20,06,40,-9.50
2008,12,20,06,41,-9.50
2008,12,20,06,42,-9.60
2008,12,20,06,43,-9.60
2008,12,20,06,44,-9.60
2008,12,20,06,45,-9.60
2008,12,20,06,46,-9.60
2008,12,20,06,47,-9.60
2008,12,20,06,48,-9.60
2008,12,20,06,49,-9.60
2008,12,20,06,50,-9.60
2008,12,20,06,51,-9.60
2008,12,20,06,52,-9.60
2008,12,20,06,53,-9.60
2008,12,20,06,54,-9.50
2008,12,20,06,55,-9.50
2008,12,20,06,56,-9.50
2008,12,20,06,57,-9.50
2008,12,20,06,58,-9.50
2008,12,20,06,59,-9.50
2008,12,20,07,00,-9.50
2008,12,20,07,01,-9.40
2008,12,20,07,02,-9.40
2008,12,20,07,03,-9.50
2008,12,20,07,04,-9.50
2008,12,20,07,05,-9.60
2008,12,20,07,06,-9.60
2008,12,20,07,07,-9.60
2008,12,20,07,08,-9.60
2008,12,20,07,09,-9.60
2008,12,20,07,10,-9.60
2008,12,20,07,11,-9.60
2008,12,20,07,12,-9.50
2008,12,20,07,13,-9.50
2008,12,20,07,14,-9.50
2008,12,20,07,15,-9.50
2008,12,20,07,16,-9.50
2008,12,20,07,17,-9.50
2008,12,20,07,18,-9.50
2008,12,20,07,19,-9.60
2008,12,20,07,20,-9.60
2008,12,20,07,21,-9.60
2008,12,20,07,22,-9.60
2008,12,20,07,23,-9.60
2008,12,20,07,24,-9.60
2008,12,20,07,25,-9.60
2008,12,20,07,26,-9.60
2008,12,20,07,27,-9.60
2008,12,20,07,28,-9.60
2008,12,20,07,29,-9.70
2008,12,20,07,30,-9.70
2008,12,20,07,31,-9.70
2008,12,20,07,32,-9.70
2008,12,20,07,33,-9.70
2008,12,20,07,34,-9.70
2008,12,20,07,35,-9.70
2008,12,20,07,36,-9.70
2008,12,20,07,37,-9.70
2008,12,20,07,38,-9.70
2008,12,20,07,39,-9.70
2008,12,20,07,40,-9.70
2008,12,20,07,41,-9.70
2008,12,20,07,42,-9.70
2008,12,20,07,43,-9.70
2008,12,20,07,44,-9.70
2008,12,20,07,45,-9.70
2008,12,20,07,46,-9.70
2008,12,20,07,47,-9.70
2008,12,20,07,48,-9.70
2008,12,20,07,49,-9.70
2008,12,20,07,50,-9.70
2008,12,20,07,51,-9.70
2008,12,20,07,52,-9.70
2008,12,20,07,53,-9.70
2008,12,20,07,54,-9.70
2008,12,20,07,55,-9.70
2008,12,20,07,56,-9.70
2008,12,20,07,57,-9.70
2008,12,20,07,58,-9.70
2008,12,20,07,59,-9.70
2008,12,20,08,00,-9.70
2008,12,20,08,01,-9.70
2008,12,20,08,02,-9.70
2008,12,20,08,03,-9.70
2008,12,20,08,04,-9.70
2008,12,20,08,05,-9.80
2008,12,20,08,06,-9.80
2008,12,20,08,07,-9.80
2008,12,20,08,08,-9.80
2008,12,20,08,09,-9.80
2008,12,20,08,10,-9.80
2008,12,20,08,11,-9.80
2008,12,20,08,12,-9.80
2008,12,20,08,13,-9.90
2008,12,20,08,14,-9.80
2008,12,20,08,15,-9.80
2008,12,20,08,16,-9.80
2008,12,20,08,17,-9.80
2008,12,20,08,18,-9.80
2008,12,20,08,19,-9.80
2008,12,20,08,20,-9.80
2008,12,20,08,21,-9.80
2008,12,20,08,22,-9.80
2008,12,20,08,23,-9.80
2008,12,20,08,24,-9.80
2008,12,20,08,25,-9.80
2008,12,20,08,26,-9.80
2008,12,20,08,27,-9.80
2008,12,20,08,28,-9.80
2008,12,20,08,29,-9.80
2008,12,20,08,30,-9.80
2008,12,20,08,31,-9.80
2008,12,20,08,32,-9.80
2008,12,20,08,33,-9.70
2008,12,20,08,34,-9.70
2008,12,20,08,35,-9.70
2008,12,20,08,36,-9.70
2008,12,20,08,37,-9.70
2008,12,20,08,38,-9.70
2008,12,20,08,39,-9.70
2008,12,20,08,40,-9.70
2008,12,20,08,41,-9.70
2008,12,20,08,42,-9.70
2008,12,20,08,43,-9.70
2008,12,20,08,44,-9.60
2008,12,20,08,45,-9.60
2008,12,20,08,46,-9.60
2008,12,20,08,47,-9.60
2008,12,20,08,48,-9.60
2008,12,20,08,49,-9.60
2008,12,20,08,50,-9.50
2008,12,20,08,51,-9.50
2008,12,20,08,52,-9.50
2008,12,20,08,53,-9.40
2008,12,20,08,54,-9.40
2008,12,20,08,55,-9.40
2008,12,20,08,56,-9.30
2008,12,20,08,57,-9.30
2008,12,20,08,58,-9.30
2008,12,20,08,59,-9.30
2008,12,20,09,00,-9.30
2008,12,20,09,01,-9.30
2008,12,20,09,02,-9.20
2008,12,20,09,03,-9.20
2008,12,20,09,04,-9.20
2008,12,20,09,05,-9.20
2008,12,20,09,06,-9.20
2008,12,20,09,07,-9.10
2008,12,20,09,08,-9.10
2008,12,20,09,09,-9.10
2008,12,20,09,10,-9.00
2008,12,20,09,11,-9.00
2008,12,20,09,12,-9.00
2008,12,20,09,13,-8.90
2008,12,20,09,14,-8.90
2008,12,20,09,15,-8.90
2008,12,20,09,16,-8.90
2008,12,20,09,17,-8.90
2008,12,20,09,18,-8.90
2008,12,20,09,19,-8.90
2008,12,20,09,20,-8.90
2008,12,20,09,21,-8.90
2008,12,20,09,22,-8.90
2008,12,20,09,23,-8.90
2008,12,20,09,24,-8.90
2008,12,20,09,25,-8.90
2008,12,20,09,26,-8.80
2008,12,20,09,27,-8.80
2008,12,20,09,28,-8.80
2008,12,20,09,29,-8.80
2008,12,20,09,30,-8.80
2008,12,20,09,31,-8.80
2008,12,20,09,32,-8.80
2008,12,20,09,33,-8.80
2008,12,20,09,34,-8.70
2008,12,20,09,35,-8.70
2008,12,20,09,36,-8.70
2008,12,20,09,37,-8.70
2008,12,20,09,38,-8.60
2008,12,20,09,39,-8.60
2008,12,20,09,40,-8.60
2008,12,20,09,41,-8.60
2008,12,20,09,42,-8.60
2008,12,20,09,43,-8.60
2008,12,20,09,44,-8.60
2008,12,20,09,45,-8.60
2008,12,20,09,46,-8.60
2008,12,20,09,47,-8.60
2008,12,20,09,48,-8.50
2008,12,20,09,49,-8.50
2008,12,20,09,50,-8.50
2008,12,20,09,51,-8.40
2008,12,20,09,52,-8.40
2008,12,20,09,53,-8.40
2008,12,20,09,54,-8.40
2008,12,20,09,55,-8.40
2008,12,20,09,56,-8.40
2008,12,20,09,57,-8.40
2008,12,20,09,58,-8.40
2008,12,20,09,59,-8.40
2008,12,20,10,00,-8.40
2008,12,20,10,01,-8.40
2008,12,20,10,02,-8.40
2008,12,20,10,03,-8.40
2008,12,20,10,04,-8.30
2008,12,20,10,05,-8.30
2008,12,20,10,06,-8.30
2008,12,20,10,07,-8.30
2008,12,20,10,08,-8.30
2008,12,20,10,09,-8.30
2008,12,20,10,10,-8.30
2008,12,20,10,11,-8.30
2008,12,20,10,12,-8.30
2008,12,20,10,13,-8.30
2008,12,20,10,14,-8.30
2008,12,20,10,15,-8.20
2008,12,20,10,16,-8.20
2008,12,20,10,17,-8.20
2008,12,20,10,18,-8.20
2008,12,20,10,19,-8.20
2008,12,20,10,20,-8.10
2008,12,20,10,21,-8.10
2008,12,20,10,22,-8.10
2008,12,20,10,23,-8.10
2008,12,20,10,24,-8.00
2008,12,20,10,25,-8.10
2008,12,20,10,26,-8.10
2008,12,20,10,27,-8.00
2008,12,20,10,28,-8.00
2008,12,20,10,29,-8.00
2008,12,20,10,30,-8.00
2008,12,20,10,31,-8.00
2008,12,20,10,32,-8.00
2008,12,20,10,33,-8.00
2008,12,20,10,34,-8.00
2008,12,20,10,35,-8.00
2008,12,20,10,36,-7.90
2008,12,20,10,37,-7.90
2008,12,20,10,38,-7.90
2008,12,20,10,39,-7.90
2008,12,20,10,40,-7.90
2008,12,20,10,41,-7.90
2008,12,20,10,42,-7.90
2008,12,20,10,43,-7.90
2008,12,20,10,44,-7.80
2008,12,20,10,45,-7.80
2008,12,20,10,46,-7.80
2008,12,20,10,47,-7.80
2008,12,20,10,48,-7.80
2008,12,20,10,49,-7.80
2008,12,20,10,50,-7.80
2008,12,20,10,51,-7.80
2008,12,20,10,52,-7.80
2008,12,20,10,53,-7.80
2008,12,20,10,54,-7.80
2008,12,20,10,55,-7.80
2008,12,20,10,56,-7.80
2008,12,20,10,57,-7.80
2008,12,20,10,58,-7.80
2008,12,20,10,59,-7.80
2008,12,20,11,00,-7.70
2008,12,20,11,01,-7.70
2008,12,20,11,02,-7.70
2008,12,20,11,03,-7.70
2008,12,20,11,04,-7.70
2008,12,20,11,05,-7.70
2008,12,20,11,06,-7.60
2008,12,20,11,07,-7.60
2008,12,20,11,08,-7.60
2008,12,20,11,09,-7.60
2008,12,20,11,10,-7.60
2008,12,20,11,11,-7.60
2008,12,20,11,12,-7.60
2008,12,20,11,13,-7.60
2008,12,20,11,14,-7.60
2008,12,20,11,15,-7.60
2008,12,20,11,16,-7.60
2008,12,20,11,17,-7.60
2008,12,20,11,18,-7.60
2008,12,20,11,19,-7.60
2008,12,20,11,20,-7.60
2008,12,20,11,21,-7.60
2008,12,20,11,22,-7.60
2008,12,20,11,23,-7.60
2008,12,20,11,24,-7.60
2008,12,20,11,25,-7.60
2008,12,20,11,26,-7.60
2008,12,20,11,27,-7.60
2008,12,20,11,28,-7.60
2008,12,20,11,29,-7.60
2008,12,20,11,30,-7.60
2008,12,20,11,31,-7.60
2008,12,20,11,32,-7.60
2008,12,20,11,33,-7.60
2008,12,20,11,34,-7.60
2008,12,20,11,35,-7.60
2008,12,20,11,36,-7.60
2008,12,20,11,37,-7.60
2008,12,20,11,38,-7.60
2008,12,20,11,39,-7.60
2008,12,20,11,40,-7.60
2008,12,20,11,41,-7.60
2008,12,20,11,42,-7.60
2008,12,20,11,43,-7.60
2008,12,20,11,44,-7.60
2008,12,20,11,45,-7.60
2008,12,20,11,46,-7.50
2008,12,20,11,47,-7.50
2008,12,20,11,48,-7.50
2008,12,20,11,49,-7.50
2008,12,20,11,50,-7.50
2008,12,20,11,51,-7.50
2008,12,20,11,52,-7.50
2008,12,20,11,53,-7.40
2008,12,20,11,54,-7.40
2008,12,20,11,55,-7.40
2008,12,20,11,56,-7.50
2008,12,20,11,57,-7.40
2008,12,20,11,58,-7.40
2008,12,20,11,59,-7.40
2008,12,20,12,00,-7.40
2008,12,20,12,01,-7.40
2008,12,20,12,02,-7.40
2008,12,20,12,03,-7.40
2008,12,20,12,04,-7.40
2008,12,20,12,05,-7.40
2008,12,20,12,06,-7.40
2008,12,20,12,07,-7.40
2008,12,20,12,08,-7.40
2008,12,20,12,09,-7.40
2008,12,20,12,10,-7.40
2008,12,20,12,11,-7.40
2008,12,20,12,12,-7.40
2008,12,20,12,13,-7.40
2008,12,20,12,14,-7.40
2008,12,20,12,15,-7.40
2008,12,20,12,16,-7.40
2008,12,20,12,17,-7.40
2008,12,20,12,18,-7.40
2008,12,20,12,19,-7.40
2008,12,20,12,20,-7.40
2008,12,20,12,21,-7.40
2008,12,20,12,22,-7.40
2008,12,20,12,23,-7.40
2008,12,20,12,24,-7.40
2008,12,20,12,25,-7.40
2008,12,20,12,26,-7.40
2008,12,20,12,27,-7.40
2008,12,20,12,28,-7.40
2008,12,20,12,29,-7.40
2008,12,20,12,30,-7.40
2008,12,20,12,31,-7.40
2008,12,20,12,32,-7.40
2008,12,20,12,33,-7.40
2008,12,20,12,34,-7.40
2008,12,20,12,35,-7.40
2008,12,20,12,36,-7.40
2008,12,20,12,37,-7.40
2008,12,20,12,38,-7.40
2008,12,20,12,39,-7.40
2008,12,20,12,40,-7.40
2008,12,20,12,41,-7.40
2008,12,20,12,42,-7.40
2008,12,20,12,43,-7.40
2008,12,20,12,44,-7.40
2008,12,20,12,45,-7.40
2008,12,20,12,46,-7.40
2008,12,20,12,47,-7.30
2008,12,20,12,48,-7.30
2008,12,20,12,49,-7.30
2008,12,20,12,50,-7.30
2008,12,20,12,51,-7.30
2008,12,20,12,52,-7.30
2008,12,20,12,53,-7.30
2008,12,20,12,54,-7.30
2008,12,20,12,55,-7.30
2008,12,20,12,56,-7.30
2008,12,20,12,57,-7.20
2008,12,20,12,58,-7.20
2008,12,20,12,59,-7.20
2008,12,20,13,00,-7.20
2008,12,20,13,01,-7.20
2008,12,20,13,02,-7.20
2008,12,20,13,03,-7.20
2008,12,20,13,04,-7.20
2008,12,20,13,05,-7.20
2008,12,20,13,06,-7.10
2008,12,20,13,07,-7.10
2008,12,20,13,08,-7.10
2008,12,20,13,09,-7.10
2008,12,20,13,10,-7.10
2008,12,20,13,11,-7.10
2008,12,20,13,12,-7.10
2008,12,20,13,13,-7.10
2008,12,20,13,14,-7.10
2008,12,20,13,15,-7.10
2008,12,20,13,16,-7.10
2008,12,20,13,17,-7.10
2008,12,20,13,18,-7.10
2008,12,20,13,19,-7.00
2008,12,20,13,20,-7.00
2008,12,20,13,21,-7.00
2008,12,20,13,22,-7.00
2008,12,20,13,23,-6.90
2008,12,20,13,24,-6.90
2008,12,20,13,25,-6.90
2008,12,20,13,26,-6.90
2008,12,20,13,27,-6.80
2008,12,20,13,28,-6.80
2008,12,20,13,29,-6.80
2008,12,20,13,30,-6.80
2008,12,20,13,31,-6.80
2008,12,20,13,32,-6.80
2008,12,20,13,33,-6.80
2008,12,20,13,34,-6.80
2008,12,20,13,35,-6.80
2008,12,20,13,36,-6.80
2008,12,20,13,37,-6.80
2008,12,20,13,38,-6.80
2008,12,20,13,39,-6.80
2008,12,20,13,40,-6.80
2008,12,20,13,41,-6.80
2008,12,20,13,42,-6.80
2008,12,20,13,43,-6.80
2008,12,20,13,44,-6.80
2008,12,20,13,45,-6.80
2008,12,20,13,46,-6.80
2008,12,20,13,47,-6.80
2008,12,20,13,48,-6.80
2008,12,20,13,49,-6.80
2008,12,20,13,50,-6.80
2008,12,20,13,51,-6.80
2008,12,20,13,52,-6.80
2008,12,20,13,53,-6.80
2008,12,20,13,54,-6.80
2008,12,20,13,55,-6.80
2008,12,20,13,56,-6.80
2008,12,20,13,57,-6.80
2008,12,20,13,58,-6.80
2008,12,20,13,59,-6.80
2008,12,20,14,00,-6.80
2008,12,20,14,01,-6.80
2008,12,20,14,02,-6.80
2008,12,20,14,03,-6.80
2008,12,20,14,04,-6.80
2008,12,20,14,05,-6.80
2008,12,20,14,06,-6.80
2008,12,20,14,07,-6.80
2008,12,20,14,08,-6.80
2008,12,20,14,09,-6.80
2008,12,20,14,10,-6.80
2008,12,20,14,11,-6.80
2008,12,20,14,12,-6.80
2008,12,20,14,13,-6.80
2008,12,20,14,14,-6.80
2008,12,20,14,15,-6.80
2008,12,20,14,16,-6.80
2008,12,20,14,17,-6.80
2008,12,20,14,18,-6.80
2008,12,20,14,19,-6.80
2008,12,20,14,20,-6.70
2008,12,20,14,21,-6.70
2008,12,20,14,22,-6.70
2008,12,20,14,23,-6.70
2008,12,20,14,24,-6.70
2008,12,20,14,25,-6.70
2008,12,20,14,26,-6.70
2008,12,20,14,27,-6.70
2008,12,20,14,28,-6.70
2008,12,20,14,29,-6.70
2008,12,20,14,30,-6.70
2008,12,20,14,31,-6.70
2008,12,20,14,32,-6.70
2008,12,20,14,33,-6.70
2008,12,20,14,34,-6.70
2008,12,20,14,35,-6.70
2008,12,20,14,36,-6.70
2008,12,20,14,37,-6.70
2008,12,20,14,38,-6.70
2008,12,20,14,39,-6.70
2008,12,20,14,40,-6.70
2008,12,20,14,41,-6.70
2008,12,20,14,42,-6.70
2008,12,20,14,43,-6.70
2008,12,20,14,44,-6.70
2008,12,20,14,45,-6.70
2008,12,20,14,46,-6.70
2008,12,20,14,47,-6.70
2008,12,20,14,48,-6.70
2008,12,20,14,49,-6.70
2008,12,20,14,50,-6.70
2008,12,20,14,51,-6.70
2008,12,20,14,52,-6.70
2008,12,20,14,53,-6.70
2008,12,20,14,54,-6.70
2008,12,20,14,55,-6.60
2008,12,20,14,56,-6.60
2008,12,20,14,57,-6.60
2008,12,20,14,58,-6.60
2008,12,20,14,59,-6.60
2008,12,20,15,00,-6.60
2008,12,20,15,01,-6.60
2008,12,20,15,02,-6.60
2008,12,20,15,03,-6.60
2008,12,20,15,04,-6.60
2008,12,20,15,05,-6.60
2008,12,20,15,06,-6.60
2008,12,20,15,07,-6.60
2008,12,20,15,08,-6.60
2008,12,20,15,09,-6.70
2008,12,20,15,10,-6.70
2008,12,20,15,11,-6.70
2008,12,20,15,12,-6.70
2008,12,20,15,13,-6.70
2008,12,20,15,14,-6.70
2008,12,20,15,15,-6.70
2008,12,20,15,16,-6.70
2008,12,20,15,17,-6.60
2008,12,20,15,18,-6.70
2008,12,20,15,19,-6.60
2008,12,20,15,20,-6.60
2008,12,20,15,21,-6.60
2008,12,20,15,22,-6.60
2008,12,20,15,23,-6.60
2008,12,20,15,24,-6.60
2008,12,20,15,25,-6.60
2008,12,20,15,26,-6.60
2008,12,20,15,27,-6.60
2008,12,20,15,28,-6.60
2008,12,20,15,29,-6.60
2008,12,20,15,30,-6.60
2008,12,20,15,31,-6.60
2008,12,20,15,32,-6.60
2008,12,20,15,33,-6.60
2008,12,20,15,34,-6.60
2008,12,20,15,35,-6.60
2008,12,20,15,36,-6.60
2008,12,20,15,37,-6.60
2008,12,20,15,38,-6.60
2008,12,20,15,39,-6.60
2008,12,20,15,40,-6.60
2008,12,20,15,41,-6.60
2008,12,20,15,42,-6.60
2008,12,20,15,43,-6.60
2008,12,20,15,44,-6.60
2008,12,20,15,45,-6.60
2008,12,20,15,46,-6.60
2008,12,20,15,47,-6.60
2008,12,20,15,48,-6.60
2008,12,20,15,49,-6.60
2008,12,20,15,50,-6.60
2008,12,20,15,51,-6.60
2008,12,20,15,52,-6.60
2008,12,20,15,53,-6.60
2008,12,20,15,54,-6.60
2008,12,20,15,55,-6.60
2008,12,20,15,56,-6.60
2008,12,20,15,57,-6.60
2008,12,20,15,58,-6.50
2008,12,20,15,59,-6.50
2008,12,20,16,00,-6.50
2008,12,20,16,01,-6.50
2008,12,20,16,02,-6.50
2008,12,20,16,03,-6.50
2008,12,20,16,04,-6.50
2008,12,20,16,05,-6.50
2008,12,20,16,06,-6.50
2008,12,20,16,07,-6.60
2008,12,20,16,08,-6.60
2008,12,20,16,09,-6.60
2008,12,20,16,10,-6.60
2008,12,20,16,11,-6.60
2008,12,20,16,12,-6.60
2008,12,20,16,13,-6.60
2008,12,20,16,14,-6.60
2008,12,20,16,15,-6.60
2008,12,20,16,16,-6.70
2008,12,20,16,17,-6.70
2008,12,20,16,18,-6.70
2008,12,20,16,19,-6.70
2008,12,20,16,20,-6.70
2008,12,20,16,21,-6.70
2008,12,20,16,22,-6.70
2008,12,20,16,23,-6.70
2008,12,20,16,24,-6.70
2008,12,20,16,25,-6.70
2008,12,20,16,26,-6.70
2008,12,20,16,27,-6.70
2008,12,20,16,28,-6.70
2008,12,20,16,29,-6.70
2008,12,20,16,30,-6.70
2008,12,20,16,31,-6.70
2008,12,20,16,32,-6.70
2008,12,20,16,33,-6.70
2008,12,20,16,34,-6.70
2008,12,20,16,35,-6.70
2008,12,20,16,36,-6.70
2008,12,20,16,37,-6.70
2008,12,20,16,38,-6.70
2008,12,20,16,39,-6.70
2008,12,20,16,40,-6.70
2008,12,20,16,41,-6.70
2008,12,20,16,42,-6.70
2008,12,20,16,43,-6.70
2008,12,20,16,44,-6.70
2008,12,20,16,45,-6.70
2008,12,20,16,46,-6.70
2008,12,20,16,47,-6.70
2008,12,20,16,48,-6.70
2008,12,20,16,49,-6.70
2008,12,20,16,50,-6.70
2008,12,20,16,51,-6.70
2008,12,20,16,52,-6.70
2008,12,20,16,53,-6.70
2008,12,20,16,54,-6.70
2008,12,20,16,55,-6.70
2008,12,20,16,56,-6.70
2008,12,20,16,57,-6.70
2008,12,20,16,58,-6.80
2008,12,20,16,59,-6.80
2008,12,20,17,00,-6.80
2008,12,20,17,01,-6.80
2008,12,20,17,02,-6.80
2008,12,20,17,03,-6.80
2008,12,20,17,04,-6.80
2008,12,20,17,05,-6.80
2008,12,20,17,06,-6.80
2008,12,20,17,07,-6.80